Погода в Борце

Россия / Рязанская область     53°48′02″N   41°08′16″E
темп.,
°C
ветер,
м/с
пор.,
м/с
влажн.,
%
обл.,
%
осадки,
мм/ч
давл.,
гПа
погр.,
м
5 марта, пт
пт500:00−2з51097100 0.9 1000482
03:00−3сз3697100 1.4 1001254
06:00−4ссз4995100 0.6 1003358
09:00−6сз489380 0.6 1006324
12:00−4сз358858 0.0 1008479
15:00−3з468863 0.0 1010611
18:00−6з369328 0.0 1011102
21:00−8з369414 0.0 1014110
6 марта, сб
сб600:00−10зсз239211 0.0 101528
03:00−11зсз228917 0.0 101621
06:00−12сз128941 0.0 101621
09:00−10з018832 0.0 101738
12:00−6з118193 0.0 1016280
15:00−5зсз238584 0.0 1015441
18:00−9зсз239364 0.0 101528
21:00−12зсз339254 0.0 101640
7 марта, вс
вс700:00−12з35940 0.0 101687
03:00−14зюз36940 0.0 1015102
06:00−14юз49930 0.0 1014151
09:00−9юз7148633 0.0 1011438
12:00−5юз91680100 0.0 1007860
15:00−4юз101881100 0.1 10021182
18:00−3юз101891100 1.9 9971190
21:00−7з91779100 2.6 997892
8 марта, пн
пн800:00−9зюз6168188 0.0 1000479
03:00−11юз6148444 0.0 1000315
06:00−9юз7158271 0.0 998507
09:00−6зюз9148686 0.5 9971044
12:00−7з8138871 0.1 999803
15:00−6з7108785 0.2 1002904
18:00−8з5128497 0.1 1003433
21:00−10з5129371 0.1 1005326
9 марта, вт
вт900:00−9з5119499 0.2 1007447
03:00−12зсз499599 0.2 1009258
06:00−15зсз489675 0.0 1012166
09:00−15зсз489473 0.0 1013276
12:00−12зсз469097 0.0 1015502
15:00−11зсз588999 0.1 1016593
18:00−14зсз4994100 0.1 1016301
21:00−17зсз379674 0.1 1019126